Time,TemperatureF,DewpointF,PressureIn,WindDirection,WindDirectionDegrees,WindSpeedMPH,WindSpeedGustMPH,Humidity,HourlyPrecipIn,Conditions,Clouds,dailyrainin,SoftwareType,DateUTC
2013-02-28 15:46:00,47.6,26.7,29.75,North,32767,-999.0,-999.0,44,0.00,,,0.00,Wunderground v.1.15,2013-02-28 20:46:00,
2013-02-28 15:51:00,48.1,27.2,29.75,North,32767,-999.0,-999.0,44,0.00,,,0.00,Wunderground v.1.15,2013-02-28 20:51:00,
2013-02-28 15:56:00,48.7,26.6,29.75,North,32767,-999.0,-999.0,42,0.00,,,0.00,Wunderground v.1.15,2013-02-28 20:56:00,
2013-02-28 16:01:00,47.8,26.9,29.75,North,32767,-999.0,-999.0,44,0.00,,,0.00,Wunderground v.1.15,2013-02-28 21:01:00,
2013-02-28 16:06:00,47.4,27.1,29.75,North,32767,-999.0,-999.0,45,0.00,,,0.00,Wunderground v.1.15,2013-02-28 21:06:00,
2013-02-28 16:11:00,47.0,26.2,29.75,North,32767,-999.0,-999.0,44,0.00,,,0.00,Wunderground v.1.15,2013-02-28 21:11:00,
2013-02-28 16:12:00,47.0,26.7,29.75,North,32767,-999.0,-999.0,45,0.00,,,0.00,Wunderground v.1.15,2013-02-28 21:12:00,
2013-02-28 16:16:00,46.8,26.6,29.75,North,32767,-999.0,-999.0,45,0.00,,,0.00,Wunderground v.1.15,2013-02-28 21:16:00,
2013-02-28 16:17:00,46.8,26.6,29.75,North,32767,-999.0,-999.0,45,0.00,,,0.00,Wunderground v.1.15,2013-02-28 21:17:00,
2013-02-28 16:21:00,46.7,27.0,29.75,North,32767,-999.0,-999.0,46,0.00,,,0.00,Wunderground v.1.15,2013-02-28 21:21:00,
2013-02-28 16:22:00,46.7,27.0,29.75,North,32767,-999.0,-999.0,46,0.00,,,0.00,Wunderground v.1.15,2013-02-28 21:22:00,
2013-02-28 16:26:00,46.4,26.7,29.75,North,32767,-999.0,-999.0,46,0.00,,,0.00,Wunderground v.1.15,2013-02-28 21:26:00,
2013-02-28 16:27:00,46.4,26.7,29.75,North,32767,-999.0,-999.0,46,0.00,,,0.00,Wunderground v.1.15,2013-02-28 21:27:00,
2013-02-28 16:31:00,46.8,26.6,29.75,North,32767,-999.0,-999.0,45,0.00,,,0.00,Wunderground v.1.15,2013-02-28 21:31:00,
2013-02-28 16:32:00,46.8,26.6,29.75,North,32767,-999.0,-999.0,45,0.00,,,0.00,Wunderground v.1.15,2013-02-28 21:32:00,
2013-02-28 16:37:00,47.7,26.8,29.75,North,32767,-999.0,-999.0,44,0.00,,,0.00,Wunderground v.1.15,2013-02-28 21:37:00,
2013-02-28 16:42:00,48.0,27.1,29.76,North,32767,-999.0,-999.0,44,0.00,,,0.00,Wunderground v.1.15,2013-02-28 21:42:00,
2013-02-28 16:47:00,47.8,26.9,29.76,North,32767,-999.0,-999.0,44,0.00,,,0.00,Wunderground v.1.15,2013-02-28 21:47:00,
2013-02-28 16:52:00,47.4,26.6,29.76,North,32767,-999.0,-999.0,44,0.00,,,0.00,Wunderground v.1.15,2013-02-28 21:52:00,
2013-02-28 16:57:00,47.2,27.5,29.76,North,32767,-999.0,-999.0,46,0.00,,,0.00,Wunderground v.1.15,2013-02-28 21:57:00,
2013-02-28 16:58:00,47.2,27.5,29.76,North,32767,-999.0,-999.0,46,0.00,,,0.00,Wunderground v.1.15,2013-02-28 21:58:00,
2013-02-28 17:02:00,47.1,26.8,29.76,North,32767,-999.0,-999.0,45,0.00,,,0.00,Wunderground v.1.15,2013-02-28 22:02:00,
2013-02-28 17:03:00,46.9,26.6,29.76,North,32767,-999.0,-999.0,45,0.00,,,0.00,Wunderground v.1.15,2013-02-28 22:03:00,
2013-02-28 17:07:00,46.7,27.5,29.76,North,32767,-999.0,-999.0,47,0.00,,,0.00,Wunderground v.1.15,2013-02-28 22:07:00,
2013-02-28 17:08:00,46.6,26.9,29.76,North,32767,-999.0,-999.0,46,0.00,,,0.00,Wunderground v.1.15,2013-02-28 22:08:00,
2013-02-28 17:12:00,46.2,26.5,29.77,North,32767,-999.0,-999.0,46,0.00,,,0.00,Wunderground v.1.15,2013-02-28 22:12:00,
2013-02-28 17:13:00,46.1,27.0,29.77,North,32767,-999.0,-999.0,47,0.00,,,0.00,Wunderground v.1.15,2013-02-28 22:13:00,
2013-02-28 17:17:00,45.9,26.3,29.77,North,32767,-999.0,-999.0,46,0.00,,,0.00,Wunderground v.1.15,2013-02-28 22:17:00,
2013-02-28 17:18:00,45.9,26.8,29.77,North,32767,-999.0,-999.0,47,0.00,,,0.00,Wunderground v.1.15,2013-02-28 22:18:00,
2013-02-28 17:22:00,45.9,26.8,29.77,North,32767,-999.0,-999.0,47,0.00,,,0.00,Wunderground v.1.15,2013-02-28 22:22:00,
2013-02-28 17:23:00,45.9,26.8,29.77,North,32767,-999.0,-999.0,47,0.00,,,0.00,Wunderground v.1.15,2013-02-28 22:23:00,
2013-02-28 17:27:00,45.9,27.3,29.77,North,32767,-999.0,-999.0,48,0.00,,,0.00,Wunderground v.1.15,2013-02-28 22:27:00,
2013-02-28 17:28:00,45.9,27.3,29.78,North,32767,-999.0,-999.0,48,0.00,,,0.00,Wunderground v.1.15,2013-02-28 22:28:00,
2013-02-28 17:32:00,45.8,26.7,29.78,North,32767,-999.0,-999.0,47,0.00,,,0.00,Wunderground v.1.15,2013-02-28 22:32:00,
2013-02-28 17:33:00,45.8,27.2,29.78,North,32767,-999.0,-999.0,48,0.00,,,0.00,Wunderground v.1.15,2013-02-28 22:33:00,
2013-02-28 17:37:00,45.6,27.0,29.78,North,32767,-999.0,-999.0,48,0.00,,,0.00,Wunderground v.1.15,2013-02-28 22:37:00,
2013-02-28 17:38:00,45.6,27.0,29.78,North,32767,-999.0,-999.0,48,0.00,,,0.00,Wunderground v.1.15,2013-02-28 22:38:00,
2013-02-28 17:42:00,45.4,27.3,29.78,North,32767,-999.0,-999.0,49,0.00,,,0.00,Wunderground v.1.15,2013-02-28 22:42:00,
2013-02-28 17:43:00,45.4,27.3,29.79,North,32767,-999.0,-999.0,49,0.00,,,0.00,Wunderground v.1.15,2013-02-28 22:43:00,
2013-02-28 17:47:00,45.2,27.2,29.79,North,32767,-999.0,-999.0,49,0.00,,,0.00,Wunderground v.1.15,2013-02-28 22:47:00,
2013-02-28 17:48:00,45.2,27.2,29.78,North,32767,-999.0,-999.0,49,0.00,,,0.00,Wunderground v.1.15,2013-02-28 22:48:00,
2013-02-28 17:52:00,45.0,27.0,29.78,North,32767,-999.0,-999.0,49,0.00,,,0.00,Wunderground v.1.15,2013-02-28 22:52:00,
2013-02-28 17:53:00,44.9,26.9,29.78,North,32767,-999.0,-999.0,49,0.00,,,0.00,Wunderground v.1.15,2013-02-28 22:53:00,
2013-02-28 17:54:00,44.9,26.9,29.78,North,32767,-999.0,-999.0,49,0.00,,,0.00,Wunderground v.1.15,2013-02-28 22:54:00,
2013-02-28 17:57:00,44.8,26.8,29.78,North,32767,-999.0,-999.0,49,0.00,,,0.00,Wunderground v.1.15,2013-02-28 22:57:00,
2013-02-28 17:58:00,44.7,26.7,29.78,North,32767,-999.0,-999.0,49,0.00,,,0.00,Wunderground v.1.15,2013-02-28 22:58:00,
2013-02-28 17:59:00,44.7,26.7,29.79,North,32767,-999.0,-999.0,49,0.00,,,0.00,Wunderground v.1.15,2013-02-28 22:59:00,